,,,PA_Meas_PMT16A,,PR_Meas_QMR101_102,,RH_Meas_QMH101,,SR_Meas_QMS101,,TA_Meas_QMH101,,GenWind,,GenWind,
date,time,status,PA,status,PR,status,RH,status,SR,status,TA,status,DirAvg,status,SpdAvg,
2011-11-19, 00:00:05,VALID,998.663,VALID,0,VALID,93.4781,VALID,0,VALID,23.4688,VALID,359,VALID,0.760547,
2011-11-19, 00:01:05,VALID,998.67,VALID,0,VALID,93.4323,VALID,0,VALID,23.4493,VALID,359,VALID,0.508203,
2011-11-19, 00:02:05,VALID,998.649,VALID,0,VALID,93.4247,VALID,0,VALID,23.389,VALID,359,VALID,0.263672,
2011-11-19, 00:03:05,VALID,998.634,VALID,0,VALID,93.44,VALID,0,VALID,23.389,VALID,359,VALID,0.218359,
2011-11-19, 00:04:05,VALID,998.636,VALID,0,VALID,93.4552,VALID,0,VALID,23.3908,VALID,359,VALID,0.0402344,
2011-11-19, 00:05:05,VALID,998.649,VALID,0,VALID,93.4781,VALID,0,VALID,23.3908,VALID,359,VALID,0,
2011-11-19, 00:06:05,VALID,998.639,VALID,0,VALID,93.5239,VALID,0,VALID,23.3695,VALID,359,VALID,0,
2011-11-19, 00:07:05,VALID,998.612,VALID,0,VALID,93.5468,VALID,0,VALID,23.35,VALID,359,VALID,0,
2011-11-19, 00:08:05,VALID,998.634,VALID,0,VALID,93.6002,VALID,0,VALID,23.3908,VALID,359,VALID,0.369922,
2011-11-19, 00:09:05,VALID,998.585,VALID,0,VALID,93.6154,VALID,0,VALID,23.3908,VALID,359,VALID,0.354297,
2011-11-19, 00:10:05,VALID,998.575,VALID,0,VALID,93.5926,VALID,0,VALID,23.311,VALID,359,VALID,0.482031,
2011-11-19, 00:11:05,VALID,998.55,VALID,0,VALID,93.6078,VALID,0,VALID,23.311,VALID,359,VALID,0.557031,
2011-11-19, 00:12:05,VALID,998.535,VALID,0,VALID,93.646,VALID,0,VALID,23.3518,VALID,359,VALID,0.480859,
2011-11-19, 00:13:05,VALID,998.521,VALID,0,VALID,93.646,VALID,0,VALID,23.3127,VALID,359,VALID,0.653516,
2011-11-19, 00:14:05,VALID,998.531,VALID,0,VALID,93.6917,VALID,0,VALID,23.2915,VALID,359,VALID,0.828906,
2011-11-19, 00:15:05,VALID,998.543,VALID,0,VALID,93.707,VALID,0,VALID,23.2915,VALID,359,VALID,0.752344,
2011-11-19, 00:16:05,VALID,998.541,VALID,0,VALID,93.768,VALID,0,VALID,23.3305,VALID,360,VALID,0.826953,
2011-11-19, 00:17:05,VALID,998.54,VALID,0,VALID,93.7833,VALID,0,VALID,23.3127,VALID,36,VALID,0.851172,
2011-11-19, 00:18:05,VALID,998.566,VALID,0,VALID,93.7909,VALID,0,VALID,23.2932,VALID,44,VALID,0.967188,
2011-11-19, 00:19:05,VALID,998.597,VALID,0,VALID,93.7985,VALID,0,VALID,23.2542,VALID,53,VALID,1.09453,
2011-11-19, 00:20:05,VALID,998.588,VALID,0,VALID,93.768,VALID,0,VALID,23.1957,VALID,73,VALID,0.816016,
2011-11-19, 00:21:05,VALID,998.631,VALID,0,VALID,93.7528,VALID,0,VALID,23.1549,VALID,73,VALID,0.896875,
2011-11-19, 00:22:05,VALID,998.636,VALID,0,VALID,93.7451,VALID,0,VALID,23.1762,VALID,73,VALID,0.749219,
2011-11-19, 00:23:05,VALID,998.651,VALID,0,VALID,93.7604,VALID,0,VALID,23.1354,VALID,73,VALID,0.571094,
2011-11-19, 00:24:05,VALID,998.64,VALID,0,VALID,93.7757,VALID,0,VALID,23.1371,VALID,73,VALID,0.544141,
2011-11-19, 00:25:05,VALID,998.628,VALID,0,VALID,93.7985,VALID,0,VALID,23.1354,VALID,73,VALID,0.436328,
2011-11-19, 00:26:05,VALID,998.638,VALID,0,VALID,93.8138,VALID,0,VALID,23.1159,VALID,73,VALID,0.307813,
2011-11-19, 00:27:05,VALID,998.573,VALID,0,VALID,93.8291,VALID,0,VALID,23.1371,VALID,73,VALID,0.339844,
2011-11-19, 00:28:05,VALID,998.595,VALID,0,VALID,93.8214,VALID,0,VALID,23.1159,VALID,73,VALID,0.439453,
2011-11-19, 00:29:05,VALID,998.599,VALID,0,VALID,93.8443,VALID,0,VALID,23.1371,VALID,73,VALID,0.471875,
2011-11-19, 00:30:05,VALID,998.566,VALID,0,VALID,93.852,VALID,0,VALID,23.1176,VALID,73,VALID,0.499609,
2011-11-19, 00:31:05,VALID,998.576,VALID,0,VALID,93.8596,VALID,0,VALID,23.0964,VALID,73,VALID,0.589844,
2011-11-19, 00:32:05,VALID,998.564,VALID,0,VALID,93.8901,VALID,0,VALID,23.0964,VALID,73,VALID,0.654297,
2011-11-19, 00:33:05,VALID,998.544,VALID,0,VALID,93.8901,VALID,0,VALID,23.0573,VALID,73,VALID,0.716406,
2011-11-19, 00:34:05,VALID,998.57,VALID,0,VALID,93.8901,VALID,0,VALID,23.0378,VALID,73,VALID,0.719922,
2011-11-19, 00:35:05,VALID,998.555,VALID,0,VALID,93.8748,VALID,0,VALID,23.0201,VALID,73,VALID,0.744531,
2011-11-19, 00:36:05,VALID,998.481,VALID,0,VALID,93.8748,VALID,0,VALID,22.9988,VALID,59,VALID,0.748438,
2011-11-19, 00:37:05,VALID,998.49,VALID,0,VALID,93.8901,VALID,0,VALID,23.0006,VALID,59,VALID,0.774219,
2011-11-19, 00:38:05,VALID,998.454,VALID,0,VALID,93.9054,VALID,0,VALID,22.9988,VALID,59,VALID,0.915625,
2011-11-19, 00:39:05,VALID,998.457,VALID,0,VALID,93.913,VALID,0,VALID,22.9988,VALID,59,VALID,0.797656,
2011-11-19, 00:40:05,VALID,998.427,VALID,0,VALID,93.913,VALID,0,VALID,22.9988,VALID,59,VALID,0.617188,
2011-11-19, 00:41:05,VALID,998.422,VALID,0,VALID,93.9435,VALID,0,VALID,22.9811,VALID,59,VALID,0.515234,
2011-11-19, 00:42:05,VALID,998.418,VALID,0,VALID,93.9511,VALID,0,VALID,22.9598,VALID,59,VALID,0.528516,
2011-11-19, 00:43:04,VALID,998.415,VALID,0,VALID,93.9206,VALID,0,VALID,22.9615,VALID,59,VALID,0.391797,
2011-11-19, 00:44:04,VALID,998.441,VALID,0,VALID,93.9283,VALID,0,VALID,22.942,VALID,59,VALID,0.383594,
2011-11-19, 00:45:04,VALID,998.403,VALID,0,VALID,93.9283,VALID,0,VALID,22.9225,VALID,59,VALID,0.65625,
2011-11-19, 00:46:04,VALID,998.408,VALID,0,VALID,93.9435,VALID,0,VALID,22.942,VALID,62,VALID,0.81875,
2011-11-19, 00:47:04,VALID,998.412,VALID,0,VALID,93.9588,VALID,0,VALID,22.9615,VALID,66,VALID,0.734766,
2011-11-19, 00:48:04,VALID,998.4,VALID,0,VALID,93.9893,VALID,0,VALID,22.9615,VALID,66,VALID,0.616016,
2011-11-19, 00:49:04,VALID,998.394,VALID,0,VALID,93.9893,VALID,0,VALID,22.942,VALID,66,VALID,0.486328,
2011-11-19, 00:50:04,VALID,998.357,VALID,0,VALID,94.0045,VALID,0,VALID,22.9013,VALID,66,VALID,0.514844,
2011-11-19, 00:51:04,VALID,998.367,VALID,0,VALID,94.0122,VALID,0,VALID,22.9013,VALID,66,VALID,0.492969,
2011-11-19, 00:52:04,VALID,998.358,VALID,0,VALID,94.0198,VALID,0,VALID,22.9225,VALID,66,VALID,0.367188,
2011-11-19, 00:53:04,VALID,998.368,VALID,0,VALID,94.0427,VALID,0,VALID,22.9013,VALID,66,VALID,0.266016,
2011-11-19, 00:54:04,VALID,998.364,VALID,0,VALID,94.058,VALID,0,VALID,22.9013,VALID,66,VALID,0.389844,
2011-11-19, 00:55:04,VALID,998.363,VALID,0,VALID,94.0427,VALID,0,VALID,22.8818,VALID,66,VALID,0.361719,
2011-11-19, 00:56:04,VALID,998.367,VALID,0,VALID,94.058,VALID,0,VALID,22.8818,VALID,66,VALID,0.244531,
2011-11-19, 00:57:04,VALID,998.33,VALID,0,VALID,94.0808,VALID,0,VALID,22.8623,VALID,66,VALID,0.315234,
2011-11-19, 00:58:04,VALID,998.35,VALID,0,VALID,94.0808,VALID,0,VALID,22.8427,VALID,66,VALID,0.416797,
2011-11-19, 00:59:04,VALID,998.316,VALID,0,VALID,94.0808,VALID,0,VALID,22.864,VALID,66,VALID,0.671875,
2011-11-19, 01:00:04,VALID,998.306,VALID,0,VALID,94.1037,VALID,0,VALID,22.8818,VALID,86,VALID,0.690234,
2011-11-19, 01:01:04,VALID,998.292,VALID,0,VALID,94.119,VALID,0,VALID,22.9225,VALID,85,VALID,0.454297,
2011-11-19, 01:02:04,VALID,998.284,VALID,0,VALID,94.119,VALID,0,VALID,22.9013,VALID,85,VALID,0.283203,
2011-11-19, 01:03:04,VALID,998.27,VALID,0,VALID,94.119,VALID,0,VALID,22.8818,VALID,86,VALID,0.103125,
2011-11-19, 01:04:04,VALID,998.25,VALID,0,VALID,94.1495,VALID,0,VALID,22.942,VALID,85,VALID,0.156641,
2011-11-19, 01:05:04,VALID,998.229,VALID,0,VALID,94.1571,VALID,0,VALID,22.942,VALID,86,VALID,0.269141,
2011-11-19, 01:06:04,VALID,998.241,VALID,0,VALID,94.1495,VALID,0,VALID,22.9598,VALID,120,VALID,0.824219,
2011-11-19, 01:07:04,VALID,998.237,VALID,0,VALID,94.1495,VALID,0,VALID,23.0378,VALID,137,VALID,0.971875,
2011-11-19, 01:08:04,VALID,998.226,VALID,0,VALID,94.1648,VALID,0,VALID,23.1371,VALID,138,VALID,0.960938,
2011-11-19, 01:09:04,VALID,998.194,VALID,0,VALID,94.1495,VALID,0,VALID,23.1957,VALID,138,VALID,1.1207,
2011-11-19, 01:10:04,VALID,998.233,VALID,0,VALID,94.1953,VALID,0,VALID,23.2134,VALID,124,VALID,0.961719,
2011-11-19, 01:11:04,VALID,998.24,VALID,0,VALID,94.18,VALID,0,VALID,23.2134,VALID,124,VALID,0.88125,
2011-11-19, 01:12:04,VALID,998.245,VALID,0,VALID,94.18,VALID,0,VALID,23.2329,VALID,124,VALID,0.826172,
2011-11-19, 01:13:04,VALID,998.224,VALID,0,VALID,94.1724,VALID,0,VALID,23.2329,VALID,122,VALID,0.699219,
2011-11-19, 01:14:04,VALID,998.224,VALID,0,VALID,94.1495,VALID,0,VALID,23.2542,VALID,121,VALID,0.643359,
2011-11-19, 01:15:04,VALID,998.272,VALID,0,VALID,94.1266,VALID,0,VALID,23.2329,VALID,121,VALID,0.653906,
2011-11-19, 01:16:04,VALID,998.258,VALID,0,VALID,94.119,VALID,0,VALID,23.2932,VALID,121,VALID,0.687109,
2011-11-19, 01:17:04,VALID,998.297,VALID,0,VALID,94.1037,VALID,0,VALID,23.2932,VALID,121,VALID,0.634375,
2011-11-19, 01:18:04,VALID,998.298,VALID,0,VALID,94.0885,VALID,0,VALID,23.2932,VALID,121,VALID,0.625781,
2011-11-19, 01:19:04,VALID,998.29,VALID,0,VALID,94.0503,VALID,0,VALID,23.2915,VALID,103,VALID,0.529297,
2011-11-19, 01:20:04,VALID,998.299,VALID,0,VALID,94.0503,VALID,0,VALID,23.2915,VALID,120,VALID,0.775781,
2011-11-19, 01:21:04,VALID,998.34,VALID,0,VALID,94.0045,VALID,0,VALID,23.2915,VALID,120,VALID,0.628906,
2011-11-19, 01:22:04,VALID,998.324,VALID,0,VALID,93.9664,VALID,0,VALID,23.3127,VALID,92,VALID,0.849219,
2011-11-19, 01:23:04,VALID,998.29,VALID,0,VALID,93.9588,VALID,0,VALID,23.311,VALID,73,VALID,0.712109,
2011-11-19, 01:24:04,VALID,998.309,VALID,0,VALID,93.9054,VALID,0,VALID,23.311,VALID,73,VALID,0.559375,
2011-11-19, 01:25:04,VALID,998.299,VALID,0,VALID,93.9054,VALID,0,VALID,23.311,VALID,71,VALID,0.613281,
2011-11-19, 01:26:04,VALID,998.304,VALID,0,VALID,93.8596,VALID,0,VALID,23.311,VALID,58,VALID,0.626953,
2011-11-19, 01:27:04,VALID,998.292,VALID,0,VALID,93.852,VALID,0,VALID,23.3305,VALID,61,VALID,1.18633,
2011-11-19, 01:28:04,VALID,998.291,VALID,0,VALID,93.8138,VALID,0,VALID,23.3695,VALID,70,VALID,0.975781,
2011-11-19, 01:29:04,VALID,998.237,VALID,0,VALID,93.7757,VALID,0,VALID,23.4085,VALID,70,VALID,0.3125,
2011-11-19, 01:30:04,VALID,998.224,VALID,0,VALID,93.7375,VALID,0,VALID,23.428,VALID,70,VALID,0.387109,
2011-11-19, 01:31:04,VALID,998.23,VALID,0,VALID,93.6841,VALID,0,VALID,23.4688,VALID,82,VALID,0.432031,
2011-11-19, 01:32:04,VALID,998.227,VALID,0,VALID,93.6231,VALID,0,VALID,23.4671,VALID,82,VALID,0.344922,
2011-11-19, 01:33:04,VALID,998.184,VALID,0,VALID,93.5544,VALID,0,VALID,23.4671,VALID,117,VALID,0.966797,
2011-11-19, 01:34:04,VALID,998.2,VALID,0,VALID,93.501,VALID,0,VALID,23.4866,VALID,117,VALID,0.477344,
2011-11-19, 01:35:04,VALID,998.155,VALID,0,VALID,93.44,VALID,0,VALID,23.5256,VALID,117,VALID,0.757813,
2011-11-19, 01:36:04,VALID,998.15,VALID,0,VALID,93.3866,VALID,0,VALID,23.5664,VALID,117,VALID,0.406641,
2011-11-19, 01:37:04,VALID,998.109,VALID,0,VALID,93.3103,VALID,0,VALID,23.5859,VALID,117,VALID,0.462891,
2011-11-19, 01:38:04,VALID,998.096,VALID,0,VALID,93.2568,VALID,0,VALID,23.5859,VALID,117,VALID,0.153906,
2011-11-19, 01:39:04,VALID,998.061,VALID,0,VALID,93.1805,VALID,0,VALID,23.5823,VALID,117,VALID,0.394531,
2011-11-19, 01:40:04,VALID,998.062,VALID,0,VALID,93.15,VALID,0,VALID,23.6232,VALID,117,VALID,0.360547,
2011-11-19, 01:41:04,VALID,998.054,VALID,0,VALID,93.0508,VALID,0,VALID,23.6214,VALID,119,VALID,1.17344,
2011-11-19, 01:42:04,VALID,998.03,VALID,0,VALID,92.9135,VALID,0.104696,VALID,23.6604,VALID,122,VALID,0.860547,
2011-11-19, 01:43:04,VALID,998.058,VALID,0,VALID,92.7609,VALID,0.104696,VALID,23.6799,VALID,112,VALID,0.858984,
2011-11-19, 01:44:04,VALID,998.045,VALID,0,VALID,92.5854,VALID,0,VALID,23.7189,VALID,101,VALID,0.879297,
2011-11-19, 01:45:04,VALID,998.061,VALID,0,VALID,92.4557,VALID,0,VALID,23.7579,VALID,90,VALID,1.11563,
2011-11-19, 01:46:04,VALID,998.037,VALID,0,VALID,92.3489,VALID,0,VALID,23.7775,VALID,102,VALID,1.26875,
2011-11-19, 01:47:04,VALID,998.05,VALID,0,VALID,92.2268,VALID,0,VALID,23.797,VALID,97,VALID,1.55664,
2011-11-19, 01:48:04,VALID,998.055,VALID,0,VALID,92.1048,VALID,0,VALID,23.8183,VALID,81,VALID,1.27266,
2011-11-19, 01:49:04,VALID,998.019,VALID,0,VALID,91.998,VALID,0,VALID,23.8165,VALID,74,VALID,0.975391,
2011-11-19, 01:50:04,VALID,998.001,VALID,0,VALID,91.9293,VALID,0,VALID,23.836,VALID,53,VALID,1.16875,
2011-11-19, 01:51:04,VALID,998.011,VALID,0,VALID,91.8911,VALID,0.104696,VALID,23.836,VALID,46,VALID,0.845703,
2011-11-19, 01:52:04,VALID,997.975,VALID,0,VALID,91.8911,VALID,0,VALID,23.836,VALID,37,VALID,0.611328,
2011-11-19, 01:53:04,VALID,997.983,VALID,0,VALID,91.9217,VALID,0,VALID,23.836,VALID,37,VALID,0.710547,
2011-11-19, 01:54:04,VALID,997.955,VALID,0,VALID,91.9064,VALID,0,VALID,23.8378,VALID,37,VALID,1.03906,
2011-11-19, 01:55:04,VALID,997.919,VALID,0,VALID,91.7996,VALID,0,VALID,23.8378,VALID,37,VALID,1.03984,
2011-11-19, 01:56:04,VALID,997.952,VALID,0,VALID,91.7538,VALID,0,VALID,23.8573,VALID,37,VALID,0.951563,
2011-11-19, 01:57:04,VALID,997.926,VALID,0,VALID,91.7691,VALID,0,VALID,23.8378,VALID,37,VALID,0.780859,
2011-11-19, 01:58:04,VALID,997.953,VALID,0,VALID,91.8225,VALID,0,VALID,23.8591,VALID,37,VALID,0.928906,
2011-11-19, 01:59:04,VALID,997.974,VALID,0,VALID,91.9598,VALID,0,VALID,23.8183,VALID,37,VALID,1.03672,
2011-11-19, 02:00:04,VALID,997.988,VALID,0,VALID,92.0666,VALID,0,VALID,23.7793,VALID,37,VALID,0.976953,
2011-11-19, 02:01:04,VALID,998.007,VALID,0,VALID,92.1734,VALID,0,VALID,23.7597,VALID,37,VALID,1.05625,
2011-11-19, 02:02:04,VALID,997.997,VALID,0,VALID,92.2955,VALID,0,VALID,23.7207,VALID,26,VALID,1.03008,
2011-11-19, 02:03:04,VALID,998.014,VALID,0,VALID,92.3642,VALID,0,VALID,23.7225,VALID,26,VALID,0.990234,
2011-11-19, 02:04:04,VALID,997.978,VALID,0,VALID,92.4405,VALID,0,VALID,23.7012,VALID,26,VALID,0.717969,
2011-11-19, 02:05:04,VALID,997.974,VALID,0,VALID,92.4786,VALID,0,VALID,23.6835,VALID,26,VALID,0.560156,
2011-11-19, 02:06:04,VALID,997.98,VALID,0,VALID,92.5397,VALID,0,VALID,23.6622,VALID,26,VALID,0.504297,
2011-11-19, 02:07:04,VALID,997.999,VALID,0,VALID,92.5931,VALID,0,VALID,23.664,VALID,26,VALID,0.501172,
2011-11-19, 02:08:04,VALID,997.978,VALID,0,VALID,92.6541,VALID,0,VALID,23.6427,VALID,26,VALID,0.360156,
2011-11-19, 02:09:04,VALID,997.998,VALID,0,VALID,92.6846,VALID,0.104696,VALID,23.6604,VALID,26,VALID,0.323047,
2011-11-19, 02:10:04,VALID,997.985,VALID,0,VALID,92.7457,VALID,0,VALID,23.6409,VALID,26,VALID,0.240625,
2011-11-19, 02:11:04,VALID,998.018,VALID,0,VALID,92.7457,VALID,0,VALID,23.6622,VALID,26,VALID,0.419141,
2011-11-19, 02:12:04,VALID,997.998,VALID,0,VALID,92.7991,VALID,0,VALID,23.6817,VALID,26,VALID,0.0460938,
2011-11-19, 02:13:04,VALID,997.994,VALID,0,VALID,92.7914,VALID,0,VALID,23.7012,VALID,26,VALID,0.427734,
2011-11-19, 02:14:04,VALID,998.017,VALID,0,VALID,92.7914,VALID,0,VALID,23.7012,VALID,26,VALID,0.526953,
2011-11-19, 02:15:04,VALID,998.024,VALID,0,VALID,92.6999,VALID,0,VALID,23.7207,VALID,26,VALID,0.453125,
2011-11-19, 02:16:04,VALID,998.006,VALID,0,VALID,92.6083,VALID,0,VALID,23.7597,VALID,84,VALID,0.677344,
2011-11-19, 02:17:04,VALID,997.973,VALID,0,VALID,92.4557,VALID,0,VALID,23.7988,VALID,116,VALID,0.991797,
2011-11-19, 02:18:04,VALID,997.995,VALID,0,VALID,92.3108,VALID,0,VALID,23.836,VALID,132,VALID,1.19219,
2011-11-19, 02:19:04,VALID,997.964,VALID,0,VALID,92.1658,VALID,0,VALID,23.8555,VALID,119,VALID,1.1043,
2011-11-19, 02:20:04,VALID,997.946,VALID,0,VALID,92.0895,VALID,0,VALID,23.8945,VALID,119,VALID,0.840234,
2011-11-19, 02:21:04,VALID,997.951,VALID,0,VALID,91.998,VALID,0,VALID,23.9159,VALID,133,VALID,0.801172,
2011-11-19, 02:22:04,VALID,997.949,VALID,0,VALID,91.8148,VALID,0,VALID,23.9159,VALID,132,VALID,0.913281,
2011-11-19, 02:23:04,VALID,997.94,VALID,0,VALID,91.6623,VALID,0,VALID,23.9549,VALID,114,VALID,1.17109,
2011-11-19, 02:24:04,VALID,997.979,VALID,0,VALID,91.4791,VALID,0,VALID,23.9744,VALID,117,VALID,0.795313,
2011-11-19, 02:25:04,VALID,997.944,VALID,0,VALID,91.3037,VALID,0,VALID,23.9726,VALID,119,VALID,0.825781,
2011-11-19, 02:26:04,VALID,997.963,VALID,0,VALID,91.1511,VALID,0,VALID,24.0134,VALID,105,VALID,0.803516,
2011-11-19, 02:27:04,VALID,997.993,VALID,0,VALID,90.9909,VALID,0,VALID,24.0311,VALID,100,VALID,0.987109,
2011-11-19, 02:28:04,VALID,997.979,VALID,0,VALID,90.9222,VALID,0,VALID,24.0311,VALID,104,VALID,0.642969,
2011-11-19, 02:29:04,VALID,997.95,VALID,0,VALID,90.8993,VALID,0,VALID,24.0311,VALID,100,VALID,0.662109,
2011-11-19, 02:30:04,VALID,997.963,VALID,0,VALID,90.9069,VALID,0,VALID,24.0525,VALID,86,VALID,0.859375,
2011-11-19, 02:31:04,VALID,997.971,VALID,0,VALID,90.8993,VALID,0,VALID,24.0116,VALID,86,VALID,0.487109,
2011-11-19, 02:32:04,VALID,997.987,VALID,0,VALID,90.9909,VALID,0,VALID,24.0116,VALID,86,VALID,0.402344,
2011-11-19, 02:33:04,VALID,997.981,VALID,0,VALID,91.1053,VALID,0,VALID,24.0311,VALID,86,VALID,0.244531,
2011-11-19, 02:34:04,VALID,997.998,VALID,0,VALID,91.1663,VALID,0,VALID,23.9921,VALID,86,VALID,0,
2011-11-19, 02:35:04,VALID,997.972,VALID,0,VALID,91.2274,VALID,0,VALID,24.0134,VALID,86,VALID,0.236719,
2011-11-19, 02:36:04,VALID,997.963,VALID,0,VALID,91.296,VALID,0,VALID,23.9939,VALID,86,VALID,0.344531,
2011-11-19, 02:37:04,VALID,998.001,VALID,0,VALID,91.3189,VALID,0,VALID,23.9726,VALID,86,VALID,0.209766,
2011-11-19, 02:38:04,VALID,997.974,VALID,0,VALID,91.3647,VALID,0,VALID,23.9744,VALID,86,VALID,0.217187,
2011-11-19, 02:39:04,VALID,997.967,VALID,0,VALID,91.3037,VALID,0,VALID,23.9354,VALID,86,VALID,0.340234,
2011-11-19, 02:40:04,VALID,997.951,VALID,0,VALID,91.2426,VALID,0,VALID,23.9567,VALID,86,VALID,0.311328,
2011-11-19, 02:41:04,VALID,997.992,VALID,0,VALID,91.2503,VALID,0,VALID,23.9567,VALID,86,VALID,0.235156,
2011-11-19, 02:42:04,VALID,997.978,VALID,0,VALID,91.38,VALID,0,VALID,23.9567,VALID,86,VALID,0.258203,
2011-11-19, 02:43:04,VALID,997.978,VALID,0,VALID,91.5173,VALID,0,VALID,23.9159,VALID,86,VALID,0.154297,
2011-11-19, 02:44:04,VALID,997.984,VALID,0,VALID,91.6394,VALID,0,VALID,23.8963,VALID,86,VALID,0.283594,
2011-11-19, 02:45:04,VALID,997.969,VALID,0,VALID,91.7385,VALID,0,VALID,23.8768,VALID,86,VALID,0.292578,
2011-11-19, 02:46:04,VALID,997.996,VALID,0,VALID,91.853,VALID,0,VALID,23.8768,VALID,86,VALID,0.184375,
2011-11-19, 02:47:04,VALID,998.025,VALID,0,VALID,91.8759,VALID,0,VALID,23.8786,VALID,86,VALID,0.171875,
2011-11-19, 02:48:04,VALID,998.024,VALID,0,VALID,91.9064,VALID,0,VALID,23.8378,VALID,86,VALID,0.117578,
2011-11-19, 02:49:04,VALID,998.02,VALID,0,VALID,91.8988,VALID,0,VALID,23.8396,VALID,86,VALID,0,
2011-11-19, 02:50:04,VALID,998.017,VALID,0,VALID,91.9217,VALID,0,VALID,23.8006,VALID,86,VALID,0,
2011-11-19, 02:51:04,VALID,998.049,VALID,0,VALID,91.9827,VALID,0,VALID,23.8006,VALID,86,VALID,0,
2011-11-19, 02:52:04,VALID,998.035,VALID,0,VALID,92.0514,VALID,0,VALID,23.7402,VALID,86,VALID,0,
2011-11-19, 02:53:04,VALID,998.001,VALID,0,VALID,92.12,VALID,0,VALID,23.7811,VALID,86,VALID,0,
2011-11-19, 02:54:04,VALID,997.998,VALID,0,VALID,92.1734,VALID,0,VALID,23.7384,VALID,86,VALID,0.0386719,
2011-11-19, 02:55:04,VALID,997.995,VALID,0,VALID,92.2421,VALID,0,VALID,23.7384,VALID,86,VALID,0,
2011-11-19, 02:56:04,VALID,997.989,VALID,0,VALID,92.2803,VALID,0,VALID,23.7189,VALID,86,VALID,0,
2011-11-19, 02:57:04,VALID,997.952,VALID,0,VALID,92.2803,VALID,0.104696,VALID,23.6994,VALID,123,VALID,1.03594,
2011-11-19, 02:58:04,VALID,997.937,VALID,0,VALID,92.0437,VALID,0,VALID,23.6994,VALID,126,VALID,0.940625,
2011-11-19, 02:59:04,VALID,997.91,VALID,0,VALID,91.6928,VALID,0,VALID,23.7597,VALID,137,VALID,1.16406,
2011-11-19, 03:00:04,VALID,997.919,VALID,0,VALID,91.5097,VALID,0,VALID,23.7775,VALID,135,VALID,1.21914,
2011-11-19, 03:01:04,VALID,997.878,VALID,0,VALID,91.5173,VALID,0,VALID,23.8378,VALID,135,VALID,1.0875,
2011-11-19, 03:02:04,VALID,997.893,VALID,0,VALID,91.4486,VALID,0,VALID,23.8165,VALID,135,VALID,1.03047,
2011-11-19, 03:03:04,VALID,997.876,VALID,0,VALID,91.3342,VALID,0,VALID,23.8165,VALID,160,VALID,0.996094,
2011-11-19, 03:04:04,VALID,997.838,VALID,0,VALID,91.1511,VALID,0,VALID,23.836,VALID,160,VALID,1.10391,
2011-11-19, 03:05:04,VALID,997.85,VALID,0,VALID,91.0137,VALID,0,VALID,23.8555,VALID,159,VALID,1.21641,
2011-11-19, 03:06:04,VALID,997.843,VALID,0,VALID,90.823,VALID,0,VALID,23.8555,VALID,144,VALID,1.00547,
2011-11-19, 03:07:04,VALID,997.84,VALID,0,VALID,90.8154,VALID,0,VALID,23.8963,VALID,165,VALID,1.13281,
2011-11-19, 03:08:04,VALID,997.831,VALID,0,VALID,90.7849,VALID,0,VALID,23.8963,VALID,147,VALID,0.774609,
2011-11-19, 03:09:04,VALID,997.816,VALID,0,VALID,90.7009,VALID,0,VALID,23.8768,VALID,148,VALID,1.19062,
2011-11-19, 03:10:04,VALID,997.802,VALID,0,VALID,90.5254,VALID,0,VALID,23.8768,VALID,143,VALID,0.997656,
2011-11-19, 03:11:04,VALID,997.804,VALID,0,VALID,90.4415,VALID,0,VALID,23.8573,VALID,152,VALID,0.908594,
2011-11-19, 03:12:04,VALID,997.819,VALID,0,VALID,90.4568,VALID,0,VALID,23.8573,VALID,140,VALID,1.50195,
2011-11-19, 03:13:04,VALID,997.831,VALID,0,VALID,90.4644,VALID,0,VALID,23.8378,VALID,146,VALID,1.43242,
2011-11-19, 03:14:04,VALID,997.858,VALID,0,VALID,90.4568,VALID,0,VALID,23.8591,VALID,141,VALID,1.44336,
2011-11-19, 03:15:04,VALID,997.877,VALID,0,VALID,90.411,VALID,0,VALID,23.8378,VALID,146,VALID,1.04336,
2011-11-19, 03:16:04,VALID,997.89,VALID,0,VALID,90.3652,VALID,0,VALID,23.8378,VALID,140,VALID,1.15078,
2011-11-19, 03:17:04,VALID,997.905,VALID,0,VALID,90.3728,VALID,0,VALID,23.8573,VALID,145,VALID,0.8375,
2011-11-19, 03:18:04,VALID,997.946,VALID,0,VALID,90.3423,VALID,0,VALID,23.8183,VALID,145,VALID,0.750391,
2011-11-19, 03:19:04,VALID,997.968,VALID,0,VALID,90.35,VALID,0,VALID,23.8201,VALID,144,VALID,0.953516,
2011-11-19, 03:20:04,VALID,997.961,VALID,0,VALID,90.3805,VALID,0,VALID,23.7988,VALID,143,VALID,1.00742,
2011-11-19, 03:21:04,VALID,997.999,VALID,0,VALID,90.4263,VALID,0,VALID,23.7793,VALID,133,VALID,0.833594,
2011-11-19, 03:22:04,VALID,997.992,VALID,0,VALID,90.4263,VALID,0,VALID,23.7811,VALID,133,VALID,0.295703,
2011-11-19, 03:23:04,VALID,997.982,VALID,0,VALID,90.5178,VALID,0,VALID,23.7402,VALID,133,VALID,0.129688,
2011-11-19, 03:24:04,VALID,997.971,VALID,0,VALID,90.6094,VALID,0,VALID,23.7189,VALID,133,VALID,0.454297,
2011-11-19, 03:25:04,VALID,997.986,VALID,0,VALID,90.7009,VALID,0,VALID,23.7012,VALID,133,VALID,0.442969,
2011-11-19, 03:26:04,VALID,997.987,VALID,0,VALID,90.7925,VALID,0.104696,VALID,23.6799,VALID,109,VALID,0.482812,
2011-11-19, 03:27:04,VALID,997.984,VALID,0,VALID,90.8993,VALID,0,VALID,23.6604,VALID,1,VALID,0.449609,
2011-11-19, 03:28:04,VALID,997.969,VALID,0,VALID,91.0061,VALID,0.104696,VALID,23.6409,VALID,360,VALID,0.396875,
2011-11-19, 03:29:04,VALID,997.997,VALID,0,VALID,91.0824,VALID,0,VALID,23.6214,VALID,360,VALID,0.197266,
2011-11-19, 03:30:04,VALID,998.017,VALID,0,VALID,91.1816,VALID,0,VALID,23.6214,VALID,360,VALID,0.201953,
2011-11-19, 03:31:04,VALID,998.016,VALID,0,VALID,91.235,VALID,0,VALID,23.6427,VALID,360,VALID,0.105469,
2011-11-19, 03:32:04,VALID,998.066,VALID,0,VALID,91.3037,VALID,0,VALID,23.6409,VALID,360,VALID,0.488281,
2011-11-19, 03:33:04,VALID,998.051,VALID,0,VALID,91.3494,VALID,0.104696,VALID,23.6409,VALID,334,VALID,0.785547,
2011-11-19, 03:34:04,VALID,998.091,VALID,0,VALID,91.2884,VALID,0,VALID,23.6799,VALID,180,VALID,1.18047,
2011-11-19, 03:35:04,VALID,998.101,VALID,0,VALID,91.1129,VALID,0.104696,VALID,23.7775,VALID,169,VALID,1.21992,
2011-11-19, 03:36:04,VALID,998.108,VALID,0,VALID,90.6628,VALID,0,VALID,23.8768,VALID,169,VALID,1.2707,
2011-11-19, 03:37:04,VALID,998.095,VALID,0,VALID,90.1745,VALID,0,VALID,23.9336,VALID,167,VALID,1.41797,
2011-11-19, 03:38:04,VALID,998.131,VALID,0,VALID,89.7091,VALID,0,VALID,24.0134,VALID,164,VALID,1.27109,
2011-11-19, 03:39:04,VALID,998.16,VALID,0,VALID,89.3505,VALID,0,VALID,24.0506,VALID,169,VALID,1.1168,
2011-11-19, 03:40:04,VALID,998.138,VALID,0,VALID,89.0453,VALID,0.104696,VALID,24.0701,VALID,170,VALID,1.41367,
2011-11-19, 03:41:04,VALID,998.151,VALID,0,VALID,88.7859,VALID,0,VALID,24.0897,VALID,167,VALID,1.15273,
2011-11-19, 03:42:04,VALID,998.132,VALID,0,VALID,88.5341,VALID,0,VALID,24.0897,VALID,159,VALID,1.27188,
2011-11-19, 03:43:04,VALID,998.172,VALID,0,VALID,88.4273,VALID,0,VALID,24.1287,VALID,164,VALID,1.25078,
2011-11-19, 03:44:04,VALID,998.157,VALID,0,VALID,88.3205,VALID,0,VALID,24.1287,VALID,179,VALID,0.982813,
2011-11-19, 03:45:04,VALID,998.171,VALID,0,VALID,88.2976,VALID,0,VALID,24.1287,VALID,169,VALID,1.10703,
2011-11-19, 03:46:04,VALID,998.15,VALID,0,VALID,88.4197,VALID,0,VALID,24.1092,VALID,180,VALID,1.31211,